TimeEST,TemperatureF,Dew PointF,Humidity,Sea Level PressureIn,VisibilityMPH,Wind Direction,Wind SpeedMPH,Gust SpeedMPH,PrecipitationIn,Events,Conditions,WindDirDegrees,DateUTC
12:54 AM,36.0,28.9,76,29.08,-9999.0,North,-9999.0,-,N/A,,Unknown,0,2012-12-22 05:54:00
1:54 AM,36.0,28.9,76,29.10,-9999.0,North,-9999.0,-,N/A,,Unknown,0,2012-12-22 06:54:00
2:54 AM,36.0,28.9,76,29.11,-9999.0,North,-9999.0,-,N/A,,Unknown,0,2012-12-22 07:54:00
3:54 AM,36.0,28.9,76,29.11,-9999.0,North,-9999.0,-,N/A,,Unknown,0,2012-12-22 08:54:00
4:54 AM,35.1,28.9,78,29.12,-9999.0,North,-9999.0,-,N/A,,Unknown,0,2012-12-22 09:54:00
5:54 AM,35.1,28.9,78,29.14,-9999.0,North,-9999.0,-,N/A,,Unknown,0,2012-12-22 10:54:00
6:54 AM,35.1,28.9,78,29.16,-9999.0,North,-9999.0,-,N/A,,Unknown,0,2012-12-22 11:54:00
7:54 AM,35.1,28.9,78,29.20,-9999.0,North,-9999.0,-,N/A,,Unknown,0,2012-12-22 12:54:00
8:54 AM,32.0,27.0,82,29.24,-9999.0,North,-9999.0,-,N/A,,Unknown,0,2012-12-22 13:54:00
9:54 AM,30.9,19.9,64,29.28,-9999.0,North,-9999.0,-,N/A,,Unknown,0,2012-12-22 14:54:00
10:54 AM,30.9,19.0,61,29.30,-9999.0,North,-9999.0,-,N/A,,Unknown,0,2012-12-22 15:54:00
11:54 AM,30.0,17.1,59,29.31,-9999.0,North,-9999.0,-,N/A,,Unknown,0,2012-12-22 16:54:00
12:54 PM,28.0,18.0,66,29.34,-9999.0,North,-9999.0,-,N/A,,Unknown,0,2012-12-22 17:54:00
1:54 PM,26.1,17.1,69,29.37,-9999.0,North,-9999.0,-,N/A,,Unknown,0,2012-12-22 18:54:00
2:54 PM,26.1,15.1,63,29.41,-9999.0,North,-9999.0,-,N/A,,Unknown,0,2012-12-22 19:54:00
3:54 PM,24.1,15.1,69,29.45,-9999.0,North,-9999.0,-,N/A,,Unknown,0,2012-12-22 20:54:00
4:54 PM,21.9,18.0,85,29.49,-9999.0,North,-9999.0,-,0.01,,Unknown,0,2012-12-22 21:54:00
5:54 PM,21.9,16.0,78,29.52,-9999.0,North,-9999.0,-,0.02,,Unknown,0,2012-12-22 22:54:00
6:54 PM,21.9,14.0,72,29.55,-9999.0,North,-9999.0,-,N/A,,Unknown,0,2012-12-22 23:54:00
7:54 PM,21.0,12.0,68,29.57,-9999.0,North,-9999.0,-,N/A,,Unknown,0,2012-12-23 00:54:00
8:54 PM,21.0,12.0,68,29.60,-9999.0,North,-9999.0,-,N/A,,Unknown,0,2012-12-23 01:54:00
9:54 PM,21.0,12.0,68,29.62,-9999.0,North,-9999.0,-,N/A,,Unknown,0,2012-12-23 02:54:00
10:54 PM,19.9,10.9,68,29.64,-9999.0,North,-9999.0,-,N/A,,Unknown,0,2012-12-23 03:54:00
11:54 PM,19.9,12.0,71,29.64,-9999.0,North,-9999.0,-,N/A,,Unknown,0,2012-12-23 04:54:00